Regional Weather Roundup
Issued by NWS

Home | Current Version | Previous Version | Graphics & Text | Print | Product List | Glossary On
Versions: 1 2 3 4 5 6 7 8 9 10 11 12 13 14 15 16 17 18 19 20 21 22 23 24 25 26 27 28 29 30 31 32
000
ASUS45 KGTF 052110
RWRMT
MONTANA HOURLY WEATHER ROUNDUP
NATIONAL WEATHER SERVICE GREAT FALLS MT
300 PM MDT TUE MAY 05 2015

NOTE: "FAIR" INDICATES FEW OR NO CLOUDS BELOW 12000 FEET WITH NO
SIGNIFICANT WEATHER AND/OR OBSTRUCTIONS TO VISIBILITY.

MTZ001>007-043-052200-
WEST OF THE DIVIDE

CITY           SKY/WX    TMP DP  RH WIND       PRES   REMARKS
KALISPELL      MOCLDY    65  32  29 S10       29.81F
MISSOULA       PTSUNNY   60  32  34 NW18G26   29.87S
BUTTE          CLOUDY    57  36  45 NE5       29.81F
DEER LODGE       N/A     55  45  67 E6        29.83R
EUREKA           N/A     63  18  17 S14G20    29.83S
HAMILTON         N/A     63  37  39 N14       29.78R
LIBBY            N/A     61  23  23 SW5       29.88S
$$

MTZ008-052>055-052200-
SOUTHWEST MONTANA

CITY           SKY/WX    TMP DP  RH WIND       PRES   REMARKS
BOZEMAN        CLOUDY    61  40  45 S22G28    29.78S
DILLON         LGT RAIN  54  39  57 W14G21    29.84R
$$

MTZ009-010-012-014-046-048-049-054-052200-
EAST SLOPES AND CENTRAL MONTANA

CITY           SKY/WX    TMP DP  RH WIND       PRES   REMARKS
CUT BANK       PTSUNNY   64  35  34 W25G33    29.73F
GREAT FALLS    CLOUDY    71  33  24 VRB5      29.71F
MALMSTROM AFB  CLOUDY    70  35  27 SE1       29.71F
HELENA         CLOUDY    68  34  28 CALM      29.74R
$$

MTZ011-013-016-021-045-047-050-051-052200-
NORTH CENTRAL MONTANA

CITY           SKY/WX    TMP DP  RH WIND       PRES   REMARKS
HAVRE          CLOUDY    77  36  22 VRB3      29.67F
LEWISTOWN      TSTM      66  48  52 NE13      29.73F
CHINOOK          N/A     77  48  36 CALM      29.65F
FORT BENTON      N/A     75  34  22 W6        29.70F
$$

MTZ017>020-022>042-056>058-061-062-052200-
EASTERN PLAINS

CITY           SKY/WX    TMP DP  RH WIND       PRES   REMARKS
BAKER          SUNNY     74  47  38 S28G35    29.82F
BILLINGS       MOSUNNY   77  36  22 SE13G20   29.70F
GLASGOW        MOSUNNY   77  40  26 SE15      29.70F
JORDAN           N/A     80  39  23 E12       29.69F
LIVINGSTON     LGT RAIN  58  46  64 SW16G28   29.80R
MILES CITY     SUNNY     81  44  27 SE13      29.71F
SIDNEY         MOSUNNY   82  46  28 SE16G25   29.76F
WOLF POINT     PTSUNNY   80  45  28 SE8G16    29.72F
BIG TIMBER       N/A     70  37  30 W12       29.75S
FORSYTH          N/A     82  41  23 E8G20     29.68F
PLENTYWOOD       N/A     79  41  25 SE15G25   29.77F
POPLAR           N/A     79  43  27 S13       29.73F
$$

REGIONAL REPORTS...DAKOTAS

CITY           SKY/WX    TMP DP  RH WIND       PRES   REMARKS
WILLISTON      SUNNY     81  43  26 S18G24    29.79F
MINOT          SUNNY     77  29  17 S23G32    29.88F
DICKINSON      MOSUNNY   72  49  44 S26G36    29.85F
BEACH          FAIR      75  48  38 S23G37    29.81F
CROSBY         FAIR      77  39  25 S23       29.80F
WATFORD CITY   FAIR      79  45  29 S24G33    29.79F
BISMARCK       SUNNY     78  30  17 S21G29    29.92F
GRAND FORKS    MOSUNNY   78  20  11 S17G26    30.01F
FARGO          SUNNY     80  26  13 SE20G26   30.00F
BUFFALO SD       N/A     68  49  50 SE30G39   29.79F
RAPID CITY     CLOUDY    61  49  64 S17G25    29.90F
$$

REGIONAL REPORTS...WYOMING/IDAHO/WASHINGTON

CITY           SKY/WX    TMP DP  RH WIND       PRES   REMARKS
GILLETTE       SUNNY     68  48  48 SE15G25   29.81F
SHERIDAN       PTSUNNY   69  44  40 SE15      29.75F
BUFFALO WY     PTSUNNY   67  45  45 SE13      29.82F
CODY           PTSUNNY   66  36  32 W10G24    29.76F
YELLOWSTONE LA   N/A     55  31  39 E5        29.92F
IDAHO FALLS    PTSUNNY   72  38  29 W7        29.76F
SALMON           N/A     63  43  48 E5        29.72F
BOISE          SUNNY     69  24  18 NW15G24   29.84F
SPOKANE        PTSUNNY   58  25  28 SW20G31   29.93F
$$

REGIONAL REPORTS...ALBERTA

CITY           SKY/WX    TMP DP  RH WIND       PRES   REMARKS
EDMONTON       CLOUDY    52  36  54 N15       29.75S
CALGARY        PTSUNNY   66  34  30 NE17G23   29.65S
LETHBRIDGE     MOSUNNY   70  30  23 SW20G33   29.69F
MEDICINE HAT   PTSUNNY   75  36  23 SE12G18   29.68F
$$

REGIONAL REPORTS...SASKATCHEWAN

CITY           SKY/WX    TMP DP  RH WIND       PRES   REMARKS
SWIFT CURRENT  PTSUNNY   77  34  20 W6        29.67F
REGINA         MOSUNNY   79  39  24 S18G28    29.75F
SASKATOON      PTSUNNY   68  45  42 SE6       29.76S
$$



USA.gov is the U.S. government's official web portal to all federal, state and local government web resources and services.